Date String (YYYY-MM-DD hh:mm:ss) UTC,Instrument flags,Ambient pressure (hPa),Sample flow (lpm),Bypass flow (lpm),Sample temperature (°C),Ambient temperature (°C),ASC tube jacket temperature (°C),LED temperature (°C),Box temperature (°C),Sample RH (%),Span deviation,Mass concentration (μg/m³),Mass concentration (μg/m³),Mass concentration (μg/m³)
DateTimeUTC,F1_M11,P_M11,Q1_M11,Q2_M11,T1_M11,T2_M11,T3_M11,T4_M11,T5_M11,U1_M11,ZSPAN_M11,X0_M11,X2_M11,X1_M11
2021-09-17 13:00:00,,0835.5,5.01,0.00,30.4,29.5,00.0,39.5,32.1,16.9,0000.0,0015.67,0004.91,0003.30
2021-09-17 13:01:00,,0835.5,5.00,0.00,30.4,29.5,00.0,39.5,32.1,16.8,0000.0,0016.45,0005.02,0003.33
2021-09-17 13:02:00,,0835.6,4.99,0.00,30.4,29.4,00.0,39.5,32.1,16.8,0000.0,0017.08,0005.14,0003.34
2021-09-17 13:03:00,,0835.5,5.01,0.00,30.4,29.4,00.0,39.5,32.1,16.9,0000.0,0017.42,0005.27,0003.38
2021-09-17 13:04:00,,0835.6,5.00,0.00,30.4,29.4,00.0,39.5,32.1,16.8,0000.0,0017.63,0005.34,0003.40
2021-09-17 13:05:00,,0835.6,5.01,0.00,30.4,29.4,00.0,39.5,32.0,16.8,0000.0,0018.23,0005.36,0003.41
2021-09-17 13:06:00,,0835.6,5.00,0.00,30.4,29.4,00.0,39.5,32.1,16.9,0000.0,0019.01,0005.33,0003.41
2021-09-17 13:07:00,,0835.6,5.00,0.00,30.4,29.4,00.0,39.5,32.1,16.8,0000.0,0018.51,0005.26,0003.42
2021-09-17 13:08:00,,0835.6,5.00,0.00,30.4,29.4,00.0,39.5,32.1,16.9,0000.0,0017.80,0005.21,0003.44
2021-09-17 13:09:00,,0835.6,5.00,0.00,30.4,29.4,00.0,39.5,32.0,16.7,0000.0,0016.85,0005.09,0003.44
2021-09-17 13:10:00,,0835.6,4.99,0.00,30.4,29.4,00.0,39.5,32.0,16.8,0000.0,0015.37,0005.03,0003.44
2021-09-17 13:11:00,,0835.6,5.01,0.00,30.4,29.4,00.0,39.5,32.0,16.8,0000.0,0014.18,0004.89,0003.44
2021-09-17 13:12:00,,0835.6,5.01,0.00,30.4,29.4,00.0,39.5,32.0,16.8,0000.0,0013.47,0004.78,0003.44
2021-09-17 13:13:00,,0835.6,4.99,0.00,30.4,29.4,00.0,39.5,32.1,16.9,0000.0,0013.41,0004.68,0003.44
2021-09-17 13:14:00,,0835.6,5.01,0.00,30.4,29.4,00.0,39.5,32.0,16.9,0000.0,0012.69,0004.61,0003.43
2021-09-17 13:15:00,,0835.6,4.98,0.00,30.4,29.5,00.0,39.5,32.1,16.8,0000.0,0012.19,0004.61,0003.42
2021-09-17 13:16:00,,0835.6,5.02,0.00,30.4,29.5,00.0,39.5,32.1,16.8,0000.0,0012.17,0004.62,0003.43
2021-09-17 13:17:00,,0835.7,5.00,0.00,30.4,29.5,00.0,39.5,32.1,16.8,0000.0,0011.37,0004.63,0003.44
2021-09-17 13:18:00,,0835.7,5.00,0.00,30.4,29.5,00.0,39.5,32.1,16.7,0000.0,0011.35,0004.68,0003.44
2021-09-17 13:19:00,,0835.7,5.01,0.00,30.4,29.5,00.0,39.5,32.1,16.8,0000.0,0011.84,0004.66,0003.43
2021-09-17 13:20:00,,0835.7,4.99,0.00,30.4,29.5,00.0,39.5,32.1,16.8,0000.0,0012.24,0004.63,0003.43
2021-09-17 13:21:00,,0835.7,4.99,0.00,30.4,29.5,00.0,39.5,32.1,16.9,0000.0,0012.12,0004.59,0003.41
2021-09-17 13:22:00,,0835.7,5.01,0.00,30.4,29.5,00.0,39.5,32.1,16.8,0000.0,0012.25,0004.57,0003.40
2021-09-17 13:23:00,,0835.7,4.99,0.00,30.4,29.5,00.0,39.5,32.1,16.8,0000.0,0012.87,0004.56,0003.41
2021-09-17 13:24:00,,0835.7,5.00,0.00,30.4,29.5,00.0,39.5,32.1,16.8,0000.0,0012.81,0004.58,0003.42
2021-09-17 13:25:00,,0835.8,5.00,0.00,30.4,29.5,00.0,39.6,32.1,16.9,0000.0,0012.76,0004.57,0003.43
2021-09-17 13:26:00,,0835.8,5.01,0.00,30.4,29.5,00.0,39.6,32.1,16.8,0000.0,0012.75,0004.55,0003.43
2021-09-17 13:27:00,,0835.7,5.00,0.00,30.4,29.5,00.0,39.6,32.1,16.9,0000.0,0012.40,0004.52,0003.42
2021-09-17 13:28:00,,0835.7,4.99,0.00,30.4,29.5,00.0,39.6,32.1,16.9,0000.0,0013.58,0004.50,0003.42
2021-09-17 13:29:00,,0835.7,5.00,0.00,30.4,29.5,00.0,39.6,32.1,16.8,0000.0,0013.45,0004.46,0003.42
2021-09-17 13:30:00,,0835.8,5.00,0.00,30.4,29.5,00.0,39.6,32.2,16.7,0000.0,0013.34,0004.46,0003.41
2021-09-17 13:31:00,,0835.8,4.99,0.00,30.4,29.5,00.0,39.6,32.1,16.7,0000.0,0012.94,0004.47,0003.43
2021-09-17 13:32:00,,0835.8,5.01,0.00,30.4,29.5,00.0,39.6,32.1,16.7,0000.0,0012.68,0004.47,0003.44
2021-09-17 13:33:00,,0835.8,5.00,0.00,30.4,29.5,00.0,39.6,32.1,16.8,0000.0,0012.97,0004.52,0003.45
2021-09-17 13:34:00,,0835.8,4.99,0.00,30.4,29.5,00.0,39.6,32.1,16.9,0000.0,0012.41,0004.53,0003.44
2021-09-17 13:35:00,,0835.8,5.01,0.00,30.4,29.5,00.0,39.6,32.1,16.8,0000.0,0012.08,0004.54,0003.44
2021-09-17 13:36:00,,0835.8,4.99,0.00,30.4,29.5,00.0,39.6,32.1,16.9,0000.0,0012.14,0004.51,0003.43
2021-09-17 13:37:00,,0835.8,5.00,0.00,30.4,29.5,00.0,39.6,32.1,17.1,0000.0,0012.32,0004.50,0003.43
2021-09-17 13:38:00,,0835.8,4.99,0.00,30.4,29.5,00.0,39.6,32.1,17.2,0000.0,0012.22,0004.55,0003.42
2021-09-17 13:39:00,,0835.8,5.00,0.00,30.4,29.5,00.0,39.6,32.1,17.3,0000.0,0011.65,0004.55,0003.41
2021-09-17 13:40:00,,0835.9,4.99,0.00,30.4,29.5,00.0,39.6,32.1,17.4,0000.0,0011.97,0004.53,0003.41
2021-09-17 13:41:00,,0835.9,4.99,0.00,30.4,29.5,00.0,39.6,32.1,17.3,0000.0,0011.90,0004.51,0003.40
2021-09-17 13:42:00,,0835.9,5.00,0.00,30.4,29.5,00.0,39.6,32.2,17.3,0000.0,0012.45,0004.56,0003.39
2021-09-17 13:43:00,,0835.9,5.00,0.00,30.4,29.5,00.0,39.6,32.1,17.1,0000.0,0013.07,0004.56,0003.37
2021-09-17 13:44:00,,0835.9,5.00,0.00,30.4,29.4,00.0,39.6,32.1,17.0,0000.0,0013.63,0004.51,0003.35
2021-09-17 13:45:00,,0835.9,5.00,0.00,30.3,29.4,00.0,39.6,32.1,17.0,0000.0,0013.89,0004.49,0003.34
2021-09-17 13:46:00,,0835.9,5.01,0.00,30.4,29.4,00.0,39.5,32.0,17.1,0000.0,0014.03,0004.49,0003.32
2021-09-17 13:47:00,,0835.9,5.00,0.00,30.4,29.4,00.0,39.5,32.1,17.1,0000.0,0014.49,0004.55,0003.30
2021-09-17 13:48:00,,0835.9,4.99,0.00,30.3,29.4,00.0,39.5,32.1,17.0,0000.0,0015.52,0004.61,0003.30
2021-09-17 13:49:00,,0835.9,5.00,0.00,30.3,29.4,00.0,39.5,32.1,17.1,0000.0,0015.78,0004.62,0003.31
2021-09-17 13:50:00,,0835.9,5.02,0.00,30.3,29.4,00.0,39.5,32.0,17.1,0000.0,0015.45,0004.61,0003.31
2021-09-17 13:51:00,,0835.9,4.99,0.00,30.3,29.4,00.0,39.5,32.0,17.2,0000.0,0015.03,0004.60,0003.31
2021-09-17 13:52:00,,0835.9,4.98,0.00,30.3,29.4,00.0,39.5,32.0,17.3,0000.0,0014.86,0004.60,0003.30
2021-09-17 13:53:00,,0835.9,5.00,0.00,30.3,29.4,00.0,39.5,32.0,17.4,0000.0,0015.32,0004.55,0003.30
2021-09-17 13:54:00,,0835.9,5.00,0.00,30.3,29.4,00.0,39.5,32.0,17.4,0000.0,0014.70,0004.53,0003.30
2021-09-17 13:55:00,,0835.9,5.01,0.00,30.3,29.4,00.0,39.5,32.0,17.1,0000.0,0014.19,0004.55,0003.31
2021-09-17 13:56:00,,0835.9,5.00,0.00,30.3,29.4,00.0,39.5,32.0,17.1,0000.0,0015.21,0004.57,0003.32
2021-09-17 13:57:00,,0835.9,4.99,0.00,30.3,29.4,00.0,39.5,32.0,17.2,0000.0,0015.41,0004.50,0003.31
2021-09-17 13:58:00,,0835.9,5.01,0.00,30.3,29.4,00.0,39.5,32.0,17.2,0000.0,0015.34,0004.44,0003.30
2021-09-17 13:59:00,,0836.0,4.99,0.00,30.3,29.4,00.0,39.5,32.0,17.2,0000.0,0015.31,0004.41,0003.31
